Zurück zum Katalog

COSMOS 375 DEB

AktivLEO
NORAD 4665·DEBRIS·🇷🇺 Russia

Gestartet Oct 30, 1970 von Baikonur Cosmodrome

Loading…

Nächste Überflüge (nächste 24 Stunden)

TLE

AktuellSource: Space-Track

Epoche: Sep 14, 2026, 09:49 UTC

1 04665U 70091S   26257.40967754  .00000987  00000-0  25202-3 0  9990
2 04665  62.5298 196.7088 0673795 191.5479 166.9414 13.68929019667498

Verfolge COSMOS 375 DEB in Echtzeit mit AllMySat

Download on the App Store